Regional Weather Roundup
Issued by NWS

Home | Current Version | Previous Version | Text Only | Print | Product List | Glossary Off
Versions: 1 2 3 4 5 6 7 8 9 10 11 12 13 14 15 16 17 18 19 20 21 22 23 24 25 26 27 28 29 30 31 32 33 34 35 36 37 38 39 40 41 42 43 44 45 46 47 48 49 50

000
ASUS45 KSLC 312310
RWRUT

UTAH REGIONAL WEATHER ROUNDUP
NATIONAL WEATHER SERVICE SALT LAKE CITY UT
400 PM MST SAT JAN 31 2015

UTZ001>011-023>025-010000-

NORTHERN UTAH

CITY           SKY/WX    TMP DP  RH WIND       PRES   REMARKS
BRIGHAM CITY   SUNNY     46  28  49 N9        30.06S
HILL AFB       SUNNY     44  25  46 W12       30.05R
LOGAN          SUNNY     43  28  55 NE6       30.07R
OGDEN          SUNNY     47  28  47 N8        30.04R
PROVO AIRPORT  MOSUNNY   45  34  65 W10       30.04S
SALT LAKE CITY MOSUNNY   45  28  51 NW12      30.06R
VERNAL         PTSUNNY   42  36  79 CALM      29.92S
WENDOVER       SUNNY     48  27  43 E6        30.07S
HEBER CITY     SUNNY     43  32  65 SW12      29.99S
WEST JORDAN    SUNNY     45  28  53 NW20G25   30.06R

$$

UTZ012>022-026-027-010000-

SOUTHERN/CENTRAL UTAH

CITY           SKY/WX    TMP DP  RH WIND       PRES   REMARKS
BLANDING       CLOUDY    39  37  91 SW5       29.99R
BRYCE CANYON   CLOUDY    33  30  88 NW20G26   30.00R WCI  21
CEDAR CITY     CLOUDY    39  34  82 N10       30.03S WCI  32
DELTA          CLOUDY    42  37  82 S10       30.05R
HANKSVILLE     PTSUNNY   46  37  71 CALM      29.96S
MILFORD        CLOUDY    42  33  70 NE7       30.04F
MOAB/CYNLANDS  CLOUDY    45  38  76 CALM      29.92R
PRICE          SUNNY     49  28  44 NW17G24   29.91S
ST GEORGE      PTCLDY    57  39  51 SE9       29.96S
KANAB            N/A     48  34  57 NW15      29.98R

$$

REGIONAL REPORTS     COLORADO/ARIZONA

CITY           SKY/WX    TMP DP  RH WIND       PRES   REMARKS
CRAIG, CO      MOSUNNY   35  27  72 SW8       29.92R WCI  29
GRAND JUNCTION CLOUDY    42  38  85 N6        29.92R
RIFLE          CLOUDY    43  32  65 W9        29.90R
MONTROSE       CLOUDY    38  35  89 CALM      29.94R
CORTEZ         CLOUDY    38  36  92 W10       29.90S WCI  31
PAGE, AZ       NOT AVBL
GRAND CANYON   SUNNY     47  33  58 NE9       29.95R
KINGMAN        MOSUNNY   56  43  61 N13       29.91R
FLAGSTAFF      PTSUNNY   44  36  73 NE10      29.93R

$$

REGIONAL REPORTS    NEVADA/IDAHO/WYOMING

CITY           SKY/WX    TMP DP  RH WIND       PRES   REMARKS
LAS VEGAS, NV  PTSUNNY   64  39  39 N8        29.90R
ELY            SUNNY     49  12  22 N18       30.04S
ELKO           SUNNY     46  28  49 SW15      30.11R
POCATELLO, ID  PTSUNNY   37  30  75 W12       30.11S WCI  29
BURLEY         SUNNY     42  28  57 W14G20    30.10S
EVANSTON, WY   SUNNY     40  25  55 W13       30.00R WCI  32
ROCK SPRINGS   SUNNY     40  25  55 W20       29.89F WCI  30
KEMMERER       SUNNY     36  21  55 W13       29.98R WCI  27

$$



USA.gov is the U.S. government's official web portal to all federal, state and local government web resources and services.